Regional Weather Roundup
Issued by NWS

Home | Current Version | Previous Version | Graphics & Text | Print | Product List | Glossary On
Versions: 1 2 3 4 5 6 7 8 9 10 11 12 13 14 15 16 17 18 19 20 21 22 23 24 25 26 27 28 29 30 31 32 33 34 35 36 37 38 39 40 41 42 43 44 45 46 47 48 49 50
000
ASUS43 KMKX 040400
RWRWI

WISCONSIN REGIONAL WEATHER ROUNDUP
NATIONAL WEATHER SERVICE MILWAUKEE/SULLIVAN WI
1000 PM CST SAT DEC 03 2016

NOTE: "FAIR" INDICATES FEW OR NO CLOUDS BELOW 12,000 FEET WITH NO
SIGNIFICANT WEATHER AND/OR OBSTRUCTIONS TO VISIBILITY.

WIZ001-002-006>008-014>016-023>028-040500-
NORTHWEST WISCONSIN

CITY           SKY/WX    TMP DP  RH WIND       PRES   REMARKS
SUPERIOR ARPT  CLOUDY    29  22  74 S5        30.16F WCI  24
ASHLAND        CLOUDY    30  22  72 VRB5      30.18F WCI  25
HAYWARD        CLOUDY    28  19  69 S9        30.16F WCI  19
SIREN          CLOUDY    29  21  71 SE5       30.15F WCI  24
CUMBERLAND     CLOUDY    28  21  74 SE6       30.16S WCI  22
RICE LAKE      CLOUDY    29  22  76 SE7       30.18F WCI  22
CHETEK         CLOUDY    28  22  78 SE7       30.18F WCI  21
LADYSMITH      CLEAR     28  23  83 SE3       30.19F
EAU CLAIRE     NOT AVBL
MENOMONIE      CLOUDY    31  25  79 E6        30.19S WCI  25
NEW RICHMOND   CLOUDY    30  22  74 SE6       30.15F WCI  24
OSCEOLA        CLOUDY    31  24  74 SE8       30.18F WCI  23
$$

WIZ003>005-009-010-017-018-040500-
NORTH CENTRAL WISCONSIN

CITY           SKY/WX    TMP DP  RH WIND       PRES   REMARKS
MANITOWISH WTR CLOUDY    26  21  79 S3        30.16F
ARBOR VITAE    CLOUDY    29  23  76 CALM      30.16F
WOODRUFF       CLOUDY    29  23  76 CALM      30.16F
RHINELANDER    CLOUDY    28  20  71 CALM      30.17F
EAGLE RIVER    CLOUDY    27  18  71 SW5       30.16F WCI  21
LAND O LAKES   CLOUDY    27  21  77 SW3       30.18F
PHILLIPS       CLOUDY    27  23  84 S5        30.16F WCI  22
TOMAHAWK       CLOUDY    27  21  77 CALM      30.18F
MEDFORD        CLOUDY    26  21  82 CALM      30.16F
MERRILL        CLOUDY    28  22  77 SW3       30.19F
$$

WIZ029-030-035-036-043>047-040500-
CENTRAL WISCONSIN

CITY           SKY/WX    TMP DP  RH WIND       PRES   REMARKS
WAUSAU         CLOUDY    28  21  75 S3        30.19F
MOSINEE        CLOUDY    27  25  93 E3        30.20F
MARSHFIELD     CLOUDY    27  21  78 SE5       30.17F WCI  22
STEVENS POINT  CLOUDY    27  21  80 CALM      30.21F
WAUPACA        CLOUDY    31  24  73 CALM      30.24F
WAUTOMA        PTCLDY    29  23  78 SE3       30.23F
WISC RAPIDS    PTCLDY    28  22  78 SE5       30.21F WCI  23
CAMP DOUGLAS   NOT AVBL
$$

WIZ011>013-019>022-031-037>040-048>050-040500-
NORTHEAST WISCONSIN

CITY           SKY/WX    TMP DP  RH WIND       PRES   REMARKS
ANTIGO         CLOUDY    27  22  82 S3        30.19S
SHAWANO        CLOUDY    32  24  71 CALM      30.24F
OCONTO         CLOUDY    31  22  71 CALM      30.25F
STURGEON BAY   CLOUDY    31  24  75 S5        30.25F WCI  26
GREEN BAY      CLOUDY    33  25  72 S3        30.25F
MANITOWOC      NOT AVBL
APPLETON       CLOUDY    30  21  69 VRB3      30.23F
CLINTONVILLE   CLOUDY    32  23  69 SW3       30.24F
OSHKOSH        CLOUDY    30  23  75 S3        30.24F
$$

WIZ032>034-041-042-053>061-040500-
SOUTHWEST WISCONSIN

CITY           SKY/WX    TMP DP  RH WIND       PRES   REMARKS
LA CROSSE      CLOUDY    34  26  72 SE6       30.20F WCI  29
SPARTA         PTCLDY    30  26  84 CALM      30.22S
VIROQUA        PTCLDY    29  27  90 SE6       30.19F WCI  23
BOSCOBEL       CLOUDY    34  26  72 CALM      30.23F
PRAIRIE DU CHI CLOUDY    34  26  74 E3        30.22S
PLATTEVILLE    CLOUDY    32  30  91 SE7       30.22S WCI  26
$$

WIZ056-057-062-063-064-067-068-040500-
SOUTH CENTRAL WISCONSIN

CITY           SKY/WX    TMP DP  RH WIND       PRES   REMARKS
REEDSBURG      PTCLDY    30  26  84 CALM      30.22F
BARABOO/DELLS  PTCLDY    30  25  81 SE5       30.21F WCI  25
LONE ROCK      NOT AVBL
MINERAL POINT  PTCLDY    32  30  93 SE5       30.21F WCI  27
MADISON        CLOUDY    30  25  81 SE5       30.23F WCI  25
MIDDLETON      CLOUDY    32  27  80 S3        30.23F
WATERTOWN      CLOUDY    29  26  89 E5        30.24F WCI  24
MONROE         MOCLDY    32  28  86 SE6       30.23S WCI  26
JANESVILLE     CLOUDY    32  30  93 SE5       30.25F WCI  27
$$

WIZ051-052-058>065-066-070>072-040500-
SOUTHEAST WISCONSIN

CITY           SKY/WX    TMP DP  RH WIND       PRES   REMARKS
MILWAUKEE      CLOUDY    32  22  66 CALM      30.26F
WAUKESHA       CLOUDY    30  23  74 SE3       30.27F
MILWAUKEE/TIMM CLOUDY    32  21  64 CALM      30.27F
RACINE         CLOUDY    32  24  72 CALM      30.28F
BURLINGTON     PTCLDY    31  25  80 CALM      30.27S
KENOSHA        CLOUDY    31  24  75 E5        30.27F WCI  26
FOND DU LAC    CLOUDY    31  22  69 S3        30.25F
SHEBOYGAN      CLOUDY    30  22  72 SW3       30.26F
WEST BEND      CLOUDY    30  27  86 CALM      30.26F
JUNEAU         CLOUDY    30  25  81 E5        30.26S WCI  25
$$

LSZ147-162-040500-
LAKE SUPERIOR

STATION/POSITION TIME  TEMP    WIND        PRES    WAVE
                       AIR SEA DIR/SP/G            HT/PER
                 (UTC) (F)     (DEG/KT/KT) (MB)    (FT/S)
DEVILS ISLAND    0300   33     190/  7/  9 1023.6F
PORT WING        0340   31     170/  4/  6 1022.0F
SAXON HARBOR     0340   31     160/  2/  3 1022.4F
$$

LMZ867-665-643>646-040500-
LAKE MICHIGAN

STATION/POSITION TIME  TEMP    WIND        PRES    WAVE
                       AIR SEA DIR/SP/G            HT/PER
                 (UTC) (F)     (DEG/KT/KT) (MB)    (FT/S)
CHAMBERS ISLAND  0340   33     200/  6/ 10 1023.7S
NORTHPORT PIER   0340   32        CALM     1023.7F
SISTER BAY       0309   33     170/  6/  7   N/A
ALGOMA LAKESHORE 0321          230/  9/ 11   N/A
KEWAUNEE LAKESHO 0330   32     240/  2/  5 1024.3F
SHEBOYGAN LAKESH 0300   31     250/  2/  3 1025.8S
PORT WASHINGTON  0330   32     230/  2/  4 1026.1F
MILWAUKEE LAKESH 0330   33     170/  2/  3   N/A
S MID LAKE BUOY  0250   35 48  290/  6/ 10 1025.9F   1/ 3
KENOSHA   LAKESH 0300   33     320/  2/  5 1025.4
$$

TC  - TEMPERATURE IN CELSIUS
VSB - VISIBILITY IN STATUTE MILES
WCI - WIND CHILL INDEX
HX  - HEAT INDEX





USA.gov is the U.S. government's official web portal to all federal, state and local government web resources and services.